STARLINK-2063 (48553 NORAD) Tracking and Keplerian Element Data

This shows tracking and keplerian element data for the satellite.

Feedback or suggestion? Click here.




ElementValue
Catalog48553
NameSTARLINK-2063
Epoch Orbit1199
Epoch Day214.70864593
Epoch Year2021
RAAN113.2593
Inclination53.0754
Eccentricity0.0002037
Argument of Perigee90.1023
Mean Anonmoly270.02
Mean Motion15.06401759
Decay Rate4.87E-06
L11 48553U 21041A 21214.70864593 .00000487 00000-0 51596-4 0 9994
L22 48553 53.0754 113.2593 0002037 90.1023 270.0200 15.06401759 11991

Live tracking and technical data element details for STARLINK-2063 (NORAD 48553). STARLINK-2063 can be tracked NOW for your location showing map with azimuth and elevation plus other details from your city location.

Track the satellite on the map from your city or location and see movement details for azimuth, elevation, latitude, longitude, range, height, and movement on the map or in text.







IsCatalogInMostPopularTable: catalog: 48553, numindb: 18
Update: records affected: 1



GetName: 48553 STARLINK-2063

Hit Count: updated at: Tue, 03 Aug 2021 21:46:37 GMT